Location: Keppel Henge
(44.7900°N, 80.9447°W)
Time: 09:37:18
(UTC-05:00)

Vanguard 1 Rocket - Pass Details

Date: 01 November 2017
Orbit: 655 x 4222 km, 34.3° (Epoch: 22 November)

Event Time Altitude Azimuth Distance (km) Brightness Sun altitude
Rises 09:34:29 0° 269° (W) 5,086 10.7 13.5°
Reaches altitude 10° 09:39:13 10° 258° (WSW) 3,484 10.1 14.2°
Maximum altitude 09:45:09 23° 210° (SSW) 1,994 9.4 15.0°
Drops below altitude 10° 09:49:20 10° 158° (SSE) 2,356 10.8 15.6°
Sets 09:51:50 0° 142° (SE) 3,100 11.8 15.9°
